STARLINK-11112, 60115

Orbit data source: Space-Track

STARLINK-11112, 60115 is a payload satellite owned by SpaceX/Seattle (US) in LEO that was launched on Mon, 24 Jun 2024 UTC via an FALCON 9 launch vehicle from the Air Force Western Test Range (AFWTR). Payload-class satellites include a variety of spacecraft equipped with specific instruments for various scientific and technological missions. These include communications satellites like Starlink; space stations such as the ISS; scientific satellites like the Hubble; Earth observation satellites from companies like Planet Labs, Umbra, and HawkEye 360; GPS; miniature CubeSats for education and research; and military/defense satellites.

Loading next visibility...
Identifier
60115, 2024-118C
Orbit
LEO
Last TLE update
15 hours ago
Origin
Manufacturer
SpaceX/Seattle
Mission
Operational Commercial Communications
Bus & Motor
STARLINK V2M, Unknown motor
Mass
730 kg wet, ~700 kg dry
Launch date (UTC)
2024-06-24 (1 year ago)
Launch vehicle
FALCON 9
Launch site
Air Force Western Test Range (AFWTR)
Object type
Payload
Rocket body
Debris
Shape & HBR
Box + 2 Pan, 29 m
Radar Cross Section
36.964 m², Large (>1 m²)

Expand to show TLE details & history

TLE from 15 hours ago
0 STARLINK-11112
1 60115U 24118C   25181.83336761 -.00000730  00000-0 -11704-5 0  9993
2 60115  53.1585  23.0280 0000774  69.0460 291.0641 15.69709060 58436
Epoch: 2025-06-30T20:00Z
TLE epoch observation values (Epoch: 2025-06-30T20:00:02.961Z)
Latitude
Longitude
163.87816°
Altitude
360.457 km
Speed
7.694 km/s
True Right ascension
01h 32m 06s
True Declination
0° 00' 00"
Sunlit
Object was in daylight at epoch
Visualization orbit readout
Latitude
-7.63186°
Longitude
-13.3833°
Altitude
362.197 km
Speed
7.693 km/s
Apparent Right ascension
12h 14m 56s
Apparent Declination
-25° 29' 39"
Sunlit
Object is in daylight
Visualization observer readout
Local Sidereal Time
22:11:52
Azimuth
289.942° WNW
Elevation
-60.58°
Doppler factor
1
Orbital elements
Apogee altitude
360.512 km
Perigee altitude
359.469 km
Semi-major axis
6,738.127 km
Eccentricity
0.00008
Inclination
53.1585°
RAAN
23.028°
Arg. of periapsis
69.046°
True anomaly
Unknown
Mean anomaly
291.0641°
Eccentric anomaly
Unknown
Mean motion
3.92405 °/min
Orbital period
91.74 mins
BSTAR
-0.0000011704
Loading maneuver chart data...
Loading SW <> Apogee altitude chart data...
Loading historical data...
Loading historical data...
Loading historical data...
Loading historical data...
Loading historical data...
Loading historical data...
Loading historical data...

STARLINK-11112 Visibility forecast

Observer location: undefined°, undefined°

Span
Click to sort rows by Start time (UTC) header in descending order
Start Az.
Max El. time (UTC)
Max El. Az.
Max El.
End time (UTC)
End Az.
5 mins2025-07-01 16:02:24.386Z224.447° SW2025-07-01 16:05:24.386Z99.129° ESE43.781°2025-07-01 16:07:24.386Z53.803° ENE
5 mins2025-07-01 22:27:24.386Z322.196° NNW2025-07-01 22:30:24.386Z66.493° ENE33.591°2025-07-01 22:32:24.386Z109.42° ESE
|